Regional Weather Roundup
Issued by NWS

Home | Current Version | Previous Version | Text Only | Print | Product List | Glossary On
Versions: 1 2 3 4 5 6 7 8 9 10 11 12 13 14 15 16 17 18 19 20 21 22 23 24 25 26 27 28 29 30 31 32 33 34 35 36 37 38 39 40 41 42 43 44 45 46 47 48 49 50
000
ASUS45 KREV 170610
RWRNV
NEVADA REGIONAL WEATHER ROUNDUP
NATIONAL WEATHER SERVICE RENO NV
1100 PM PDT TUE SEP 16 2014

NOTE: "FAIR" INDICATES FEW OR NO CLOUDS BELOW 12,000 FEET WITH NO
SIGNIFICANT WEATHER AND/OR OBSTRUCTIONS TO VISIBILITY.

NVZ001-003-004-170700-
WESTERN NEVADA

CITY           SKY/WX    TMP DP  RH WIND       PRES   REMARKS
RENO           CLOUDY    75  34  22 E6        29.97S
6HR MIN TEMP:  75; 6HR MAX TEMP:  92;

MINDEN         FAIR      70  32  24 SE13      30.02S
SLIDE MTN        N/A     52  30  43 SW29        N/A
PYRAMID LAKE     N/A     81 N/A N/A CALM        N/A
FALLON         PTCLDY    69  29  22 NE8       29.94R HAZE
6HR MIN TEMP:  69; 6HR MAX TEMP:  96;

LOVELOCK       CLOUDY    70  29  21 CALM      29.93S HAZE
6HR MIN TEMP:  70; 6HR MAX TEMP:  92;

HAWTHORNE      CLEAR     81  37  21 CALM      29.95R
$$

NVZ002-CAZ072-073-170700-
NORTHERN AND CENTRAL SIERRA

CITY           SKY/WX    TMP DP  RH WIND       PRES   REMARKS
S. LAKE TAHOE  MOCLDY    57  30  35 CALM      30.14R
6HR MIN TEMP:  56; 6HR MAX TEMP:  81;

TRUCKEE        MOCLDY    52  34  50 CALM      30.11S
SQUAW VLY 8000 NOT AVBL
SUSANVILLE     CLEAR     66  32  28 SW7       29.98S
BLUE CANYON    CLOUDY    64  35  34 E3        30.08F
MAMMOTH LAKES  FAIR      57  37  47 CALM      30.20S
BRIDGEPORT     FAIR      63  33  32 W12       30.15F
$$

NVZ030-031-036-170700-
NORTHERN NEVADA

CITY           SKY/WX    TMP DP  RH WIND       PRES   REMARKS
ELKO           CLEAR     66  37  34 NE5       30.00S
6HR MIN TEMP:  64; 6HR MAX TEMP:  90;

WINNEMUCCA     PTCLDY    63  32  31 N5        29.96R
6HR MIN TEMP:  60; 6HR MAX TEMP:  91;

WENDOVER       CLEAR     70  37  30 CALM      29.93S
$$

NVZ035-037-170700-
CENTRAL NEVADA

CITY           SKY/WX    TMP DP  RH WIND       PRES   REMARKS
ELY            CLEAR     63  37  38 S14       30.14S
6HR MIN TEMP:  61; 6HR MAX TEMP:  84;

EUREKA           N/A     67  35  30 SE8       30.07S
6HR MIN TEMP:  65; 6HR MAX TEMP:  89;

$$

NVZ013-014-170700-
SOUTH CENTRAL NEVADA

CITY           SKY/WX    TMP DP  RH WIND       PRES   REMARKS
TONOPAH        CLEAR     68  35  29 N7        30.07R
6HR MIN TEMP:  67; 6HR MAX TEMP:  89;

$$

NVZ017-020-022-170700-
SOUTHERN NEVADA

CITY           SKY/WX    TMP DP  RH WIND       PRES   REMARKS
LAS VEGAS      MOCLDY    85  55  35 S15       29.88S
6HR MIN TEMP:  85; 6HR MAX TEMP:  98;

N. LAS VEGAS   MOCLDY    85  54  34 SW5       29.92R
6HR MIN TEMP:  85; 6HR MAX TEMP: 100;

NELLIS AFB     MOCLDY    85  56  37 S13       29.90S
6HR MIN TEMP:  85; 6HR MAX TEMP: 100;

HENDERSON      MOCLDY    85  53  33 S13G20    29.93R
6HR MIN TEMP:  83; 6HR MAX TEMP:  97;

MERCURY        PTCLDY    84  55  36 SW8       29.91S
6HR MIN TEMP:  84; 6HR MAX TEMP:  97;

$$


USA.gov is the U.S. government's official web portal to all federal, state and local government web resources and services.